• In Slovakia
  • List of Countries
  • For 7 days
  • Water Temperature
  • Satellite Maps
  • Weather Map
  • Weather Widgets
  • user-avatar
    Login

    Hourly Weather Horoshavino

    Today, 22 October, Monday

    Time Temperature Precipitation Wind Pressure Humidity
    00:00 +1°C° 0 mm 1 mps 756 mmHg 88%
    01:00 +1°C° 0 mm 1 mps 756 mmHg 89%
    02:00 +1°C° 0 mm 1 mps 756 mmHg 90%
    03:00 +1°C° 0 mm 1 mps 756 mmHg 92%
    04:00 +1°C° 0 mm 1 mps 756 mmHg 93%
    05:00 -1°C° 0 mm 2 mps 756 mmHg 94%
    06:00 -2°C° 0 mm 2 mps 756 mmHg 94%
    07:00 -1°C° 0 mm 2 mps 755 mmHg 90%
    08:00 0°C° 0 mm 3 mps 755 mmHg 86%
    09:00 +1°C° 0 mm 3 mps 755 mmHg 81%
    10:00 +3°C° 0 mm 4 mps 755 mmHg 77%
    11:00 +4°C° 0 mm 4 mps 754 mmHg 72%
    12:00 +5°C° 0 mm 5 mps 754 mmHg 67%
    13:00 +5°C° 0 mm 5 mps 753 mmHg 67%
    14:00 +5°C° 0 mm 5 mps 753 mmHg 68%
    15:00 +5°C° 0 mm 5 mps 752 mmHg 68%
    16:00 +3°C° 0 mm 5 mps 751 mmHg 71%
    17:00 +3°C° 0 mm 5 mps 751 mmHg 75%
    18:00 +2°C° 0 mm 5 mps 750 mmHg 78%
    19:00 +2°C° 0 mm 5 mps 750 mmHg 80%
    20:00 +2°C° 0 mm 5 mps 749 mmHg 82%
    21:00 +2°C° 0 mm 5 mps 749 mmHg 83%
    22:00 +1°C° 0 mm 5 mps 748 mmHg 84%
    23:00 +1°C° 0 mm 5 mps 748 mmHg 85%

    Tomorrow, 23 October, Tuesday

    Time Temperature Precipitation Wind Pressure Humidity
    00:00 +1°C° 0 mm 4 mps 747 mmHg 86%
    01:00 +1°C° 0 mm 5 mps 747 mmHg 88%
    02:00 +1°C° 0 mm 5 mps 746 mmHg 89%
    03:00 +1°C° 0 mm 5 mps 746 mmHg 90%
    04:00 +1°C° 0 mm 5 mps 745 mmHg 91%
    05:00 +2°C° 0 mm 5 mps 744 mmHg 92%
    06:00 +2°C° 0 mm 5 mps 744 mmHg 93%
    07:00 +3°C° 0.1 mm 5 mps 743 mmHg 92%
    08:00 +5°C° 0.1 mm 5 mps 743 mmHg 90%
    09:00 +6°C° 0.1 mm 5 mps 743 mmHg 89%
    10:00 +6°C° 0.2 mm 5 mps 742 mmHg 88%
    11:00 +6°C° 0.2 mm 5 mps 742 mmHg 88%
    12:00 +7°C° 0.2 mm 5 mps 741 mmHg 87%
    13:00 +7°C° 1.2 mm 5 mps 741 mmHg 88%
    14:00 +6°C° 1.2 mm 5 mps 740 mmHg 89%
    15:00 +6°C° 1.2 mm 4 mps 740 mmHg 91%
    16:00 +6°C° 0.9 mm 4 mps 740 mmHg 91%
    17:00 +5°C° 0.9 mm 3 mps 739 mmHg 92%
    18:00 +5°C° 0.9 mm 3 mps 739 mmHg 93%
    19:00 +6°C° 0.2 mm 2 mps 739 mmHg 93%
    20:00 +5°C° 0.2 mm 2 mps 739 mmHg 93%
    21:00 +6°C° 0.2 mm 1 mps 738 mmHg 93%
    22:00 +5°C° 0 mm 1 mps 738 mmHg 93%
    23:00 +5°C° 0 mm 1 mps 738 mmHg 93%

    Day after tomorrow, 24 October, Wednesday

    Time Temperature Precipitation Wind Pressure Humidity
    00:00 +4°C° 0 mm 1 mps 738 mmHg 93%
    01:00 +4°C° 0 mm 1 mps 737 mmHg 94%
    02:00 +4°C° 0 mm 1 mps 737 mmHg 94%
    03:00 +3°C° 0 mm 1 mps 737 mmHg 94%
    04:00 +3°C° 0 mm 1 mps 737 mmHg 94%
    05:00 +2°C° 0 mm 2 mps 736 mmHg 95%
    06:00 +2°C° 0 mm 2 mps 736 mmHg 95%
    07:00 +2°C° 0 mm 2 mps 736 mmHg 92%
    08:00 +2°C° 0 mm 3 mps 736 mmHg 89%
    09:00 +3°C° 0 mm 3 mps 736 mmHg 86%
    10:00 +4°C° 0 mm 4 mps 735 mmHg 81%
    11:00 +5°C° 0 mm 4 mps 735 mmHg 77%
    12:00 +6°C° 0 mm 5 mps 735 mmHg 73%
    13:00 +6°C° 0.1 mm 4 mps 735 mmHg 74%
    14:00 +6°C° 0.1 mm 4 mps 735 mmHg 75%
    15:00 +6°C° 0.1 mm 4 mps 735 mmHg 76%
    16:00 +6°C° 0.2 mm 4 mps 735 mmHg 79%
    17:00 +5°C° 0.2 mm 4 mps 735 mmHg 81%
    18:00 +5°C° 0.2 mm 4 mps 735 mmHg 83%
    19:00 +5°C° 0 mm 4 mps 735 mmHg 84%
    20:00 +4°C° 0 mm 3 mps 735 mmHg 86%
    21:00 +4°C° 0 mm 3 mps 735 mmHg 87%
    22:00 +4°C° 0 mm 3 mps 735 mmHg 87%
    23:00 +4°C° 0 mm 3 mps 735 mmHg 88%

    25 October, Thursday

    Time Temperature Precipitation Wind Pressure Humidity
    00:00 +5°C° 0 mm 3 mps 735 mmHg 88%
    01:00 +5°C° 0.2 mm 3 mps 735 mmHg 89%
    02:00 +4°C° 0.2 mm 3 mps 735 mmHg 90%
    03:00 +4°C° 0.2 mm 3 mps 735 mmHg 91%
    04:00 +4°C° 0.8 mm 3 mps 735 mmHg 92%
    05:00 +4°C° 0.8 mm 3 mps 735 mmHg 93%
    06:00 +4°C° 0.8 mm 3 mps 734 mmHg 94%
    07:00 +5°C° 0.5 mm 3 mps 734 mmHg 93%
    08:00 +5°C° 0.5 mm 4 mps 734 mmHg 92%
    09:00 +6°C° 0.5 mm 4 mps 734 mmHg 92%
    10:00 +6°C° 0.4 mm 4 mps 734 mmHg 91%
    11:00 +7°C° 0.4 mm 4 mps 733 mmHg 90%
    12:00 +7°C° 0.4 mm 5 mps 733 mmHg 90%
    13:00 +8°C° 0.3 mm 5 mps 733 mmHg 90%
    14:00 +8°C° 0.3 mm 5 mps 732 mmHg 90%
    15:00 +9°C° 0.3 mm 5 mps 732 mmHg 90%
    16:00 +8°C° 0.5 mm 6 mps 731 mmHg 90%
    17:00 +8°C° 0.5 mm 6 mps 730 mmHg 90%
    18:00 +8°C° 0.5 mm 6 mps 730 mmHg 90%
    19:00 +8°C° 0.7 mm 7 mps 729 mmHg 89%
    20:00 +8°C° 0.7 mm 7 mps 729 mmHg 88%
    21:00 +8°C° 0.7 mm 7 mps 728 mmHg 87%
    22:00 +8°C° 0.8 mm 7 mps 728 mmHg 88%
    23:00 +8°C° 0.8 mm 6 mps 728 mmHg 88%

    26 October, Friday

    Time Temperature Precipitation Wind Pressure Humidity
    00:00 +8°C° 0.8 mm 5 mps 727 mmHg 89%
    01:00 +8°C° 0.1 mm 5 mps 727 mmHg 85%
    02:00 +7°C° 0.1 mm 5 mps 727 mmHg 81%
    03:00 +7°C° 0.1 mm 5 mps 726 mmHg 77%
    04:00 +6°C° 0 mm 5 mps 726 mmHg 77%
    05:00 +6°C° 0 mm 5 mps 726 mmHg 77%
    06:00 +4°C° 0 mm 6 mps 726 mmHg 77%
    07:00 +4°C° 0 mm 6 mps 726 mmHg 78%
    08:00 +4°C° 0 mm 6 mps 726 mmHg 78%
    09:00 +4°C° 0 mm 6 mps 726 mmHg 78%
    10:00 +4°C° 0.1 mm 6 mps 726 mmHg 78%
    11:00 +4°C° 0.1 mm 6 mps 726 mmHg 77%
    12:00 +4°C° 0.1 mm 6 mps 727 mmHg 77%
    13:00 +4°C° 0.3 mm 6 mps 727 mmHg 77%
    14:00 +4°C° 0.3 mm 6 mps 728 mmHg 78%
    15:00 +4°C° 0.3 mm 6 mps 728 mmHg 78%
    16:00 +3°C° 0.2 mm 6 mps 729 mmHg 78%
    17:00 +3°C° 0.2 mm 6 mps 729 mmHg 78%
    18:00 +3°C° 0.2 mm 6 mps 730 mmHg 77%
    19:00 +2°C° 0 mm 6 mps 731 mmHg 78%
    20:00 +2°C° 0 mm 5 mps 731 mmHg 78%
    21:00 +1°C° 0 mm 5 mps 732 mmHg 78%
    22:00 +1°C° 0 mm 5 mps 733 mmHg 78%
    23:00 +1°C° 0 mm 5 mps 733 mmHg 78%

    27 October, Saturday

    Time Temperature Precipitation Wind Pressure Humidity
    00:00 0°C° 0 mm 5 mps 734 mmHg 78%
    01:00 0°C° 0 mm 5 mps 735 mmHg 79%
    02:00 -1°C° 0 mm 5 mps 735 mmHg 81%
    03:00 -2°C° 0 mm 5 mps 736 mmHg 82%
    04:00 -2°C° 0 mm 5 mps 736 mmHg 82%
    05:00 -2°C° 0 mm 5 mps 737 mmHg 83%
    06:00 -2°C° 0 mm 5 mps 737 mmHg 83%
    07:00 -2°C° 0 mm 5 mps 738 mmHg 81%
    08:00 -1°C° 0 mm 5 mps 739 mmHg 79%
    09:00 -2°C° 0 mm 6 mps 739 mmHg 76%
    10:00 -1°C° 0 mm 6 mps 740 mmHg 75%
    11:00 -1°C° 0 mm 6 mps 741 mmHg 73%
    12:00 -1°C° 0 mm 6 mps 741 mmHg 71%
    13:00 -1°C° 0 mm 6 mps 742 mmHg 71%
    14:00 -1°C° 0 mm 6 mps 742 mmHg 70%
    15:00 -1°C° 0 mm 6 mps 743 mmHg 69%
    16:00 0°C° 0 mm 5 mps 743 mmHg 70%
    17:00 0°C° 0 mm 5 mps 744 mmHg 72%
    18:00 -1°C° 0 mm 4 mps 744 mmHg 73%
    19:00 -1°C° 0 mm 4 mps 745 mmHg 74%
    20:00 -1°C° 0 mm 4 mps 745 mmHg 76%
    21:00 -1°C° 0 mm 4 mps 745 mmHg 77%
    22:00 -1°C° 0 mm 4 mps 745 mmHg 79%
    23:00 -1°C° 0 mm 4 mps 745 mmHg 81%

    28 October, Sunday

    Time Temperature Precipitation Wind Pressure Humidity
    00:00 -2°C° 0 mm 4 mps 745 mmHg 82%
    01:00 -1°C° 0.1 mm 4 mps 745 mmHg 83%
    02:00 -1°C° 0.1 mm 4 mps 745 mmHg 83%
    03:00 -1°C° 0.1 mm 4 mps 745 mmHg 84%
    04:00 0°C° 0.5 mm 4 mps 744 mmHg 86%
    05:00 +1°C° 0.5 mm 5 mps 744 mmHg 87%
    06:00 +1°C° 0.5 mm 5 mps 744 mmHg 89%
    07:00 +2°C° 0.1 mm 5 mps 744 mmHg 89%
    08:00 +2°C° 0.1 mm 6 mps 744 mmHg 89%
    09:00 +3°C° 0.1 mm 6 mps 744 mmHg 89%
    10:00 +3°C° 0 mm 6 mps 745 mmHg 87%
    11:00 +5°C° 0 mm 5 mps 745 mmHg 86%
    12:00 +5°C° 0 mm 5 mps 746 mmHg 84%
    13:00 +5°C° 0 mm 5 mps 746 mmHg 85%
    14:00 +5°C° 0 mm 4 mps 746 mmHg 85%
    15:00 +5°C° 0 mm 3 mps 747 mmHg 86%
    16:00 +5°C° 0 mm 3 mps 747 mmHg 88%
    17:00 +5°C° 0 mm 2 mps 747 mmHg 91%
    18:00 +4°C° 0 mm 2 mps 747 mmHg 94%
    19:00 +5°C° 0.3 mm 2 mps 746 mmHg 94%
    20:00 +5°C° 0.3 mm 2 mps 746 mmHg 95%
    21:00 +5°C° 0.3 mm 2 mps 746 mmHg 96%
    22:00 +5°C° 1.1 mm 3 mps 745 mmHg 96%
    23:00 +7°C° 1.1 mm 3 mps 745 mmHg 95%
    Show more